TimeEDT,TemperatureF,Dew PointF,Humidity,Sea Level PressureIn,VisibilityMPH,Wind Direction,Wind SpeedMPH,Gust SpeedMPH,PrecipitationIn,Events,Conditions,WindDirDegrees,DateUTC
12:15 AM,51.8,37.4,58,30.04,10.0,West,5.8,-,N/A,,Clear,260,2014-03-09 05:15:00
12:35 AM,51.8,37.4,58,30.04,10.0,West,5.8,-,N/A,,Clear,270,2014-03-09 05:35:00
12:55 AM,51.8,37.4,58,30.03,10.0,West,6.9,-,N/A,,Clear,260,2014-03-09 05:55:00
1:15 AM,51.8,37.4,58,30.03,10.0,West,6.9,-,N/A,,Clear,280,2014-03-09 06:15:00
1:35 AM,53.6,37.4,54,30.03,10.0,West,5.8,-,N/A,,Clear,270,2014-03-09 06:35:00
1:55 AM,53.6,37.4,54,30.03,10.0,WNW,3.5,-,N/A,,Clear,300,2014-03-09 06:55:00
3:15 AM,50.0,37.4,62,30.02,10.0,West,3.5,-,N/A,,Clear,260,2014-03-09 07:15:00
3:35 AM,48.2,37.4,66,30.03,10.0,West,4.6,-,N/A,,Clear,260,2014-03-09 07:35:00
3:55 AM,46.4,37.4,71,30.03,10.0,NW,3.5,-,N/A,,Clear,310,2014-03-09 07:55:00
4:15 AM,46.4,37.4,71,30.03,10.0,West,4.6,-,N/A,,Clear,260,2014-03-09 08:15:00
4:35 AM,50.0,37.4,62,30.02,10.0,West,3.5,-,N/A,,Clear,280,2014-03-09 08:35:00
4:55 AM,46.4,37.4,71,30.02,10.0,West,4.6,-,N/A,,Clear,270,2014-03-09 08:55:00
5:15 AM,50.0,37.4,62,30.03,10.0,NW,4.6,-,N/A,,Clear,320,2014-03-09 09:15:00
5:35 AM,48.2,37.4,66,30.03,10.0,WNW,4.6,-,N/A,,Clear,290,2014-03-09 09:35:00
5:55 AM,46.4,37.4,71,30.04,10.0,West,6.9,-,N/A,,Clear,270,2014-03-09 09:55:00
6:15 AM,50.0,35.6,58,30.04,10.0,West,5.8,-,N/A,,Clear,280,2014-03-09 10:15:00
6:35 AM,50.0,35.6,58,30.04,10.0,West,3.5,-,N/A,,Clear,280,2014-03-09 10:35:00
6:55 AM,50.0,35.6,58,30.06,10.0,WNW,6.9,-,N/A,,Clear,300,2014-03-09 10:55:00
7:15 AM,51.8,35.6,54,30.07,10.0,West,5.8,-,N/A,,Clear,280,2014-03-09 11:15:00
7:35 AM,50.0,35.6,58,30.06,10.0,West,4.6,-,N/A,,Clear,270,2014-03-09 11:35:00
7:55 AM,51.8,35.6,54,30.07,10.0,NNW,5.8,-,N/A,,Clear,340,2014-03-09 11:55:00
8:15 AM,53.6,37.4,54,30.07,10.0,NNW,8.1,-,N/A,,Clear,340,2014-03-09 12:15:00
8:35 AM,53.6,37.4,54,30.08,10.0,NNW,6.9,-,N/A,,Clear,330,2014-03-09 12:35:00
8:55 AM,55.4,39.2,54,30.09,10.0,NW,6.9,-,N/A,,Clear,310,2014-03-09 12:55:00
9:15 AM,55.4,39.2,54,30.10,10.0,NW,6.9,-,N/A,,Clear,310,2014-03-09 13:15:00
9:35 AM,57.2,41.0,55,30.10,10.0,NW,6.9,-,N/A,,Clear,310,2014-03-09 13:35:00
9:55 AM,59.0,41.0,51,30.10,10.0,NW,6.9,-,N/A,,Clear,320,2014-03-09 13:55:00
10:15 AM,60.8,41.0,48,30.10,10.0,NNW,5.8,-,N/A,,Clear,330,2014-03-09 14:15:00
10:35 AM,62.6,41.0,45,30.10,10.0,NNW,15.0,-,N/A,,Clear,330,2014-03-09 14:35:00
10:55 AM,62.6,39.2,42,30.10,10.0,NW,11.5,18.4,N/A,,Clear,320,2014-03-09 14:55:00
11:15 AM,62.6,41.0,45,30.10,10.0,NNW,11.5,-,N/A,,Clear,340,2014-03-09 15:15:00
11:35 AM,64.4,41.0,42,30.10,10.0,NW,6.9,-,N/A,,Clear,310,2014-03-09 15:35:00
11:55 AM,66.2,39.2,37,30.10,10.0,NW,10.4,-,N/A,,Clear,320,2014-03-09 15:55:00
12:15 PM,66.2,39.2,37,30.10,10.0,NNW,10.4,19.6,N/A,,Clear,330,2014-03-09 16:15:00
12:35 PM,68.0,41.0,37,30.09,10.0,NW,10.4,-,N/A,,Clear,310,2014-03-09 16:35:00
12:55 PM,68.0,39.2,35,30.09,10.0,NW,5.8,-,N/A,,Clear,310,2014-03-09 16:55:00
1:15 PM,68.0,41.0,37,30.09,10.0,North,8.1,-,N/A,,Clear,360,2014-03-09 17:15:00
1:35 PM,68.0,41.0,37,30.08,10.0,NW,6.9,-,N/A,,Clear,310,2014-03-09 17:35:00
1:55 PM,68.0,39.2,35,30.07,10.0,NNW,4.6,-,N/A,,Clear,330,2014-03-09 17:55:00
2:15 PM,69.8,39.2,33,30.06,10.0,NW,6.9,-,N/A,,Clear,320,2014-03-09 18:15:00
2:35 PM,69.8,39.2,33,30.05,10.0,NNW,3.5,-,N/A,,Clear,340,2014-03-09 18:35:00
2:55 PM,69.8,39.2,33,30.05,10.0,WSW,4.6,-,N/A,,Clear,250,2014-03-09 18:55:00
3:15 PM,71.6,41.0,33,30.04,10.0,SSW,3.5,-,N/A,,Clear,200,2014-03-09 19:15:00
3:35 PM,71.6,41.0,33,30.03,10.0,Calm,Calm,-,N/A,,Clear,0,2014-03-09 19:35:00
3:55 PM,71.6,41.0,33,30.03,10.0,SW,4.6,-,N/A,,Clear,230,2014-03-09 19:55:00
4:15 PM,71.6,42.8,35,30.02,10.0,SE,8.1,-,N/A,,Clear,140,2014-03-09 20:15:00
4:35 PM,71.6,41.0,33,30.02,10.0,South,3.5,-,N/A,,Clear,190,2014-03-09 20:35:00
4:55 PM,71.6,41.0,33,30.02,10.0,NW,3.5,-,N/A,,Clear,310,2014-03-09 20:55:00
5:15 PM,71.6,41.0,33,30.02,10.0,SW,3.5,-,N/A,,Clear,220,2014-03-09 21:15:00
5:35 PM,71.6,41.0,33,30.01,10.0,South,4.6,-,N/A,,Clear,180,2014-03-09 21:35:00
5:55 PM,71.6,41.0,33,30.01,10.0,West,3.5,-,N/A,,Clear,260,2014-03-09 21:55:00
6:15 PM,71.6,41.0,33,30.00,10.0,Calm,Calm,-,N/A,,Clear,0,2014-03-09 22:15:00
6:35 PM,71.6,41.0,33,30.00,10.0,SSW,3.5,-,N/A,,Clear,200,2014-03-09 22:35:00
6:55 PM,69.8,41.0,35,30.01,10.0,Calm,Calm,-,N/A,,Clear,0,2014-03-09 22:55:00
7:15 PM,69.8,41.0,35,30.01,10.0,Calm,Calm,-,N/A,,Clear,0,2014-03-09 23:15:00
7:35 PM,68.0,42.8,40,30.01,10.0,Calm,Calm,-,N/A,,Clear,0,2014-03-09 23:35:00
7:55 PM,66.2,42.8,43,30.01,10.0,Calm,Calm,-,N/A,,Clear,0,2014-03-09 23:55:00
8:15 PM,64.4,42.8,45,30.01,10.0,Calm,Calm,-,N/A,,Clear,0,2014-03-10 00:15:00
8:35 PM,62.6,42.8,48,30.01,10.0,Calm,Calm,-,N/A,,Clear,0,2014-03-10 00:35:00
8:55 PM,60.8,42.8,52,30.01,10.0,Calm,Calm,-,N/A,,Clear,0,2014-03-10 00:55:00
9:15 PM,60.8,44.6,55,30.01,10.0,Calm,Calm,-,N/A,,Clear,0,2014-03-10 01:15:00
9:35 PM,60.8,42.8,52,30.02,10.0,North,9.2,-,N/A,,Clear,360,2014-03-10 01:35:00
9:55 PM,59.0,41.0,51,30.02,10.0,North,5.8,-,N/A,,Clear,10,2014-03-10 01:55:00
10:15 PM,60.8,37.4,42,30.02,10.0,NE,5.8,-,N/A,,Clear,40,2014-03-10 02:15:00
10:35 PM,60.8,35.6,39,30.01,10.0,NNE,5.8,-,N/A,,Clear,30,2014-03-10 02:35:00
10:55 PM,59.0,33.8,39,30.02,10.0,North,4.6,-,N/A,,Clear,10,2014-03-10 02:55:00
11:15 PM,59.0,32.0,36,30.03,10.0,North,5.8,-,N/A,,Clear,350,2014-03-10 03:15:00
11:35 PM,59.0,32.0,36,30.03,10.0,NNW,4.6,-,N/A,,Clear,340,2014-03-10 03:35:00
11:55 PM,57.2,30.2,36,30.02,10.0,North,4.6,-,N/A,,Clear,350,2014-03-10 03:55:00
12:15 AM,57.2,30.2,36,30.03,10.0,NNW,5.8,-,N/A,,Clear,340,2014-03-10 04:15:00
12:35 AM,55.4,28.4,36,30.03,10.0,NNW,5.8,-,N/A,,Clear,340,2014-03-10 04:35:00
12:55 AM,55.4,28.4,36,30.04,10.0,NW,3.5,-,N/A,,Clear,320,2014-03-10 04:55:00